This is the latest recevied weather packets stored in our database for station/object N0FDH. If no packets are shown the sender has not sent any weather packets the latest 10 day(s).
| Time | Temp. | Humidity | Pressure | Rain* | Wind** | Luminosity | Snow |
|---|---|---|---|---|---|---|---|
| 1777774097 | 15.56° C | 45% | 1010 hPa | 0 mm | - | 0 W/m² | - |
| 1777773795 | 15.56° C | 45% | 1009.9 hPa | 0 mm | - | 0 W/m² | - |
| 1777773490 | 15.56° C | 47% | 1010.1 hPa | 0 mm | - | 0 W/m² | - |
| 1777773188 | 15.56° C | 43% | 1009.8 hPa | 0 mm | - | 0 W/m² | - |
| 1777772883 | 15.56° C | 45% | 1009.8 hPa | 0 mm | - | 0 W/m² | - |
| 1777772581 | 15.56° C | 46% | 1009.7 hPa | 0 mm | - | 0 W/m² | - |
| 1777772278 | 15.56° C | 45% | 1009.5 hPa | 0 mm | - | 0 W/m² | - |
| 1777771975 | 16.11° C | 43% | 1009.6 hPa | 0 mm | - | 0 W/m² | - |
| 1777771673 | 15.56° C | 42% | 1009.8 hPa | 0 mm | - | 0 W/m² | - |
| 1777771370 | 15.56° C | 43% | 1009.8 hPa | 0 mm | - | 1 W/m² | - |
| 1777771067 | 15° C | 42% | 1009.9 hPa | 0 mm | - | 1 W/m² | - |
| 1777770764 | 15° C | 42% | 1009.8 hPa | 0 mm | - | 2 W/m² | - |
| 1777770460 | 15.56° C | 41% | 1009.9 hPa | 0 mm | - | 3 W/m² | - |
| 1777770157 | 15.56° C | 41% | 1009.7 hPa | 0 mm | - | 3 W/m² | - |
| 1777769854 | 15.56° C | 41% | 1009.7 hPa | 0 mm | - | 4 W/m² | - |
| 1777769551 | 15.56° C | 40% | 1009.8 hPa | 0 mm | - | 5 W/m² | - |
| 1777769247 | 15.56° C | 41% | 1009.8 hPa | 0 mm | - | 6 W/m² | - |
| 1777768946 | 15.56° C | 40% | 1009.9 hPa | 0 mm | - | 9 W/m² | - |
| 1777768643 | 15.56° C | 40% | 1009.9 hPa | 0 mm | - | 13 W/m² | - |
| 1777768340 | 15.56° C | 39% | 1009.9 hPa | 0 mm | - | 16 W/m² | - |
| 1777768036 | 15.56° C | 40% | 1009.9 hPa | 0 mm | - | 16 W/m² | - |
| 1777767733 | 15.56° C | 41% | 1010 hPa | 0 mm | - | 20 W/m² | - |
| 1777767429 | 15.56° C | 39% | 1010.4 hPa | 0 mm | - | 23 W/m² | - |
| 1777767126 | 15.56° C | 39% | 1010.3 hPa | 0 mm | - | 28 W/m² | - |
| 1777766824 | 15.56° C | 38% | 1010.3 hPa | 0 mm | - | 27 W/m² | - |
* Rain latest hour (hover to see other rain measurements)
** Current wind speed in m/s (hover to see current wind gust speed)